Powrót do katalogu

STARLINK-35417

AktywnyŁącznośćVLEO
NORAD 66335·PAYLOAD·🇺🇸 United States

Wystrzelony Nov 6, 2025 z Cape Canaveral Space Force Station

Loading…

Następne Przeloty (najbliższe 24 godziny)

TLE

ŚwieżeSource: CelesTrak SupGP

Epoka: Sep 14, 2026, 23:02 UTC

1 66335C 25253S   26257.96020833  .00008860  00000+0  32081-3 0  2578
2 66335  43.0007 223.6482 0001315 263.3230 343.9259 15.27582804    13

Śledź STARLINK-35417 w czasie rzeczywistym z AllMySat

Download on the App Store